Date String (YYYY-MM-DD hh:mm:ss) UTC,Instrument flags,Ambient pressure (hPa),Sample flow (lpm),Bypass flow (lpm),Sample temperature (°C),Ambient temperature (°C),ASC tube jacket temperature (°C),LED temperature (°C),Box temperature (°C),Sample RH (%),Span deviation,Mass concentration (μg/m³),Mass concentration (μg/m³),Mass concentration (μg/m³)
DateTimeUTC,F1_M11,P_M11,Q1_M11,Q2_M11,T1_M11,T2_M11,T3_M11,T4_M11,T5_M11,U1_M11,ZSPAN_M11,X0_M11,X2_M11,X1_M11
2022-01-30 02:00:00,,0827.7,5.00,0.00,27.0,26.2,00.0,36.1,28.7,04.7,0000.0,0009.74,0006.51,0006.13
2022-01-30 02:01:00,,0827.7,4.99,0.00,27.0,26.2,00.0,36.1,28.7,04.6,0000.0,0009.64,0006.46,0006.10
2022-01-30 02:02:00,,0827.7,5.02,0.00,27.0,26.2,00.0,36.1,28.7,04.6,0000.0,0009.52,0006.40,0006.06
2022-01-30 02:03:00,,0827.7,5.00,0.00,27.0,26.2,00.0,36.1,28.7,05.0,0000.0,0009.45,0006.32,0005.98
2022-01-30 02:04:00,,0827.7,5.00,0.00,27.0,26.2,00.0,36.1,28.7,04.9,0000.0,0009.39,0006.20,0005.86
2022-01-30 02:05:00,,0827.7,4.99,0.00,26.9,26.2,00.0,36.1,28.7,04.7,0000.0,0009.23,0006.11,0005.77
2022-01-30 02:06:00,,0827.7,5.00,0.00,26.9,26.2,00.0,36.0,28.7,04.7,0000.0,0009.24,0006.00,0005.66
2022-01-30 02:07:00,,0827.7,5.00,0.00,26.9,26.2,00.0,36.0,28.7,04.7,0000.0,0009.15,0005.86,0005.52
2022-01-30 02:08:00,,0827.7,5.00,0.00,26.9,26.1,00.0,36.0,28.6,04.7,0000.0,0008.90,0005.69,0005.38
2022-01-30 02:09:00,,0827.7,5.00,0.00,26.9,26.1,00.0,36.0,28.6,04.7,0000.0,0008.92,0005.55,0005.26
2022-01-30 02:10:00,,0827.7,4.99,0.00,26.9,26.1,00.0,36.0,28.6,04.6,0000.0,0008.70,0005.42,0005.15
2022-01-30 02:11:00,,0827.7,5.02,0.00,26.9,26.1,00.0,36.0,28.6,04.4,0000.0,0008.59,0005.35,0005.07
2022-01-30 02:12:00,,0827.7,4.99,0.00,26.8,26.0,00.0,36.0,28.6,04.5,0000.0,0008.56,0005.31,0005.01
2022-01-30 02:13:00,,0827.7,5.01,0.00,26.8,26.0,00.0,35.9,28.5,04.5,0000.0,0008.48,0005.24,0004.95
2022-01-30 02:14:00,,0827.7,5.01,0.00,26.8,26.0,00.0,35.9,28.5,04.5,0000.0,0008.44,0005.21,0004.91
2022-01-30 02:15:00,,0827.7,5.00,0.00,26.8,26.0,00.0,35.9,28.5,04.5,0000.0,0008.29,0005.17,0004.89
2022-01-30 02:16:00,,0827.7,5.00,0.00,26.8,26.0,00.0,35.9,28.5,04.4,0000.0,0008.79,0005.12,0004.84
2022-01-30 02:17:00,,0827.7,4.99,0.00,26.8,26.0,00.0,35.9,28.5,04.4,0000.0,0008.51,0005.05,0004.78
2022-01-30 02:18:00,,0827.7,4.99,0.00,26.8,26.0,00.0,35.9,28.5,04.3,0000.0,0008.31,0004.99,0004.72
2022-01-30 02:19:00,,0827.7,4.99,0.00,26.7,26.0,00.0,35.9,28.5,04.3,0000.0,0008.25,0004.94,0004.67
2022-01-30 02:20:00,,0827.7,5.00,0.00,26.7,26.0,00.0,35.8,28.5,04.3,0000.0,0008.00,0004.87,0004.61
2022-01-30 02:21:00,,0827.7,5.00,0.00,26.7,26.0,00.0,35.8,28.5,04.3,0000.0,0007.89,0004.81,0004.55
2022-01-30 02:22:00,,0827.7,5.01,0.00,26.7,26.0,00.0,35.8,28.5,04.3,0000.0,0007.75,0004.70,0004.46
2022-01-30 02:23:00,,0827.7,4.99,0.00,26.7,25.9,00.0,35.8,28.4,04.4,0000.0,0007.50,0004.51,0004.30
2022-01-30 02:24:00,,0827.7,5.00,0.00,26.7,25.9,00.0,35.8,28.4,04.4,0000.0,0007.35,0004.38,0004.16
2022-01-30 02:25:00,,0827.7,5.01,0.00,26.7,25.9,00.0,35.8,28.4,04.5,0000.0,0007.17,0004.26,0004.03
2022-01-30 02:26:00,,0827.7,5.01,0.00,26.7,25.9,00.0,35.8,28.4,04.7,0000.0,0007.16,0004.16,0003.92
2022-01-30 02:27:00,,0827.7,5.00,0.00,26.7,25.9,00.0,35.8,28.5,04.8,0000.0,0006.89,0004.13,0003.86
2022-01-30 02:28:00,,0827.7,5.00,0.00,26.7,25.9,00.0,35.7,28.5,04.8,0000.0,0006.68,0004.10,0003.84
2022-01-30 02:29:00,,0827.7,5.01,0.00,26.7,25.9,00.0,35.7,28.5,04.9,0000.0,0006.67,0004.06,0003.81
2022-01-30 02:30:00,,0827.7,5.00,0.00,26.7,25.9,00.0,35.7,28.5,04.9,0000.0,0006.64,0004.02,0003.78
2022-01-30 02:31:00,,0827.7,5.00,0.00,26.7,25.9,00.0,35.7,28.5,05.0,0000.0,0006.72,0004.06,0003.81
2022-01-30 02:32:00,,0827.7,5.01,0.00,26.7,25.9,00.0,35.7,28.5,05.0,0000.0,0006.70,0004.08,0003.84
2022-01-30 02:33:00,,0827.7,4.99,0.00,26.7,25.9,00.0,35.7,28.5,05.0,0000.0,0006.84,0004.17,0003.91
2022-01-30 02:34:00,,0827.7,4.99,0.00,26.7,25.9,00.0,35.7,28.5,05.6,0000.0,0007.27,0004.40,0004.14
2022-01-30 02:35:00,,0827.8,5.01,0.00,26.7,25.9,00.0,35.7,28.5,05.8,0000.0,0007.73,0004.67,0004.39
2022-01-30 02:36:00,,0827.7,5.00,0.00,26.7,25.9,00.0,35.7,28.5,05.8,0000.0,0008.22,0004.92,0004.65
2022-01-30 02:37:00,,0827.7,4.99,0.00,26.7,25.9,00.0,35.7,28.5,05.7,0000.0,0008.47,0005.18,0004.89
2022-01-30 02:38:00,,0827.7,4.99,0.00,26.7,25.9,00.0,35.7,28.5,05.8,0000.0,0008.30,0005.37,0005.09
2022-01-30 02:39:00,,0827.7,5.01,0.00,26.7,25.9,00.0,35.7,28.5,06.1,0000.0,0008.66,0005.60,0005.31
2022-01-30 02:40:00,,0827.7,5.02,0.00,26.7,25.9,00.0,35.7,28.5,05.9,0000.0,0008.91,0005.82,0005.51
2022-01-30 02:41:00,,0827.7,5.00,0.00,26.7,25.9,00.0,35.7,28.5,05.7,0000.0,0009.16,0006.02,0005.69
2022-01-30 02:42:00,,0827.7,5.00,0.00,26.7,25.9,00.0,35.7,28.5,05.5,0000.0,0009.29,0006.16,0005.84
2022-01-30 02:43:00,,0827.7,5.00,0.00,26.7,25.9,00.0,35.7,28.4,04.7,0000.0,0009.31,0006.18,0005.87
2022-01-30 02:44:00,,0827.7,5.01,0.00,26.6,25.9,00.0,35.7,28.4,04.5,0000.0,0009.31,0006.16,0005.84
2022-01-30 02:45:00,,0827.7,5.01,0.00,26.6,25.8,00.0,35.7,28.4,04.5,0000.0,0009.23,0006.08,0005.79
2022-01-30 02:46:00,,0827.7,4.99,0.00,26.6,25.8,00.0,35.6,28.3,04.4,0000.0,0009.09,0006.02,0005.71
2022-01-30 02:47:00,,0827.7,4.99,0.00,26.6,25.8,00.0,35.6,28.3,04.4,0000.0,0008.64,0005.86,0005.57
2022-01-30 02:48:00,,0827.7,5.00,0.00,26.5,25.7,00.0,35.6,28.2,04.6,0000.0,0008.25,0005.60,0005.36
2022-01-30 02:49:00,,0827.7,5.01,0.00,26.5,25.6,00.0,35.6,28.2,04.7,0000.0,0007.95,0005.34,0005.10
2022-01-30 02:50:00,,0827.7,4.99,0.00,26.4,25.5,00.0,35.6,28.1,04.7,0000.0,0007.53,0005.04,0004.83
2022-01-30 02:51:00,,0827.7,5.00,0.00,26.4,25.4,00.0,35.5,28.0,05.0,0000.0,0007.22,0004.82,0004.62
2022-01-30 02:52:00,,0827.7,5.01,0.00,26.3,25.4,00.0,35.5,27.9,05.1,0000.0,0007.63,0004.66,0004.49
2022-01-30 02:53:00,,0827.7,4.99,0.00,26.3,25.3,00.0,35.5,27.9,05.4,0000.0,0008.27,0004.61,0004.44
2022-01-30 02:54:00,,0827.8,4.99,0.00,26.2,25.3,00.0,35.4,27.9,05.6,0000.0,0008.69,0004.79,0004.59
2022-01-30 02:55:00,,0827.8,5.03,0.00,26.2,25.2,00.0,35.4,27.9,05.6,0000.0,0009.45,0005.01,0004.80
2022-01-30 02:56:00,,0827.8,5.00,0.00,26.2,25.3,00.0,35.4,27.9,05.5,0000.0,0009.68,0005.12,0004.90
2022-01-30 02:57:00,,0827.7,4.99,0.00,26.2,25.3,00.0,35.4,27.9,05.5,0000.0,0009.90,0005.18,0004.98
2022-01-30 02:58:00,,0827.7,5.01,0.00,26.2,25.3,00.0,35.3,27.9,05.7,0000.0,0010.06,0005.33,0005.11
2022-01-30 02:59:00,,0827.7,5.00,0.00,26.2,25.3,00.0,35.3,27.9,05.8,0000.0,0010.56,0005.69,0005.43
